Theta_e
351 354 354 358 374 368 365 360 355 354 353 351 351 355 358 360 362 366 350 350 348 349 350 349 344 344 341 341 345 348 350 352 352 350 351 350 348 348 348 350 350 350 349 351 352 355 353 353 353
354 355 357 360 373 373 367 359 359 354 353 352 354 354 354 362 354 351 351 349 348 350 350 351 344 341 344 339 342 346 353 347 350 353 353 353 349 348 349 351 351 351 351 352 351 353 355 352 351
354 355 362 363 368 373 369 360 358 355 354 354 356 352 356 359 351 350 350 349 348 349 350 355 349 349 347 341 345 350 354 353 353 353 353 353 351 351 352 350 350 350 351 351 352 353 353 354 352
352 359 359 372 367 364 361 359 356 357 355 351 354 360 355 352 350 349 350 349 348 348 351 352 352 354 350 347 342 347 352 350 352 353 353 353 352 349 351 349 349 349 350 350 353 353 354 354 354
354 358 360 368 364 360 358 357 358 356 357 354 354 359 359 352 350 348 349 350 348 351 352 351 349 350 347 345 345 345 351 352 349 351 351 352 351 350 348 347 349 352 351 352 351 352 352 348 350
355 351 356 367 360 356 356 356 354 357 355 354 356 357 356 351 349 348 349 349 348 353 351 352 351 347 349 353 350 347 347 346 345 344 344 349 351 350 348 346 347 351 353 352 351 351 351 352 350
350 351 354 357 357 358 355 353 354 355 356 354 354 360 353 350 348 347 349 347 348 350 351 350 350 353 354 353 350 344 345 344 345 345 349 350 351 351 346 345 351 351 351 351 352 351 350 350 351
351 347 350 352 356 354 351 352 353 356 357 352 353 361 358 350 348 347 348 349 349 351 350 349 347 350 351 352 348 345 347 345 345 346 351 351 352 350 347 344 346 351 351 349 350 351 350 350 349
349 347 350 348 348 350 351 351 353 352 354 356 355 354 353 349 348 347 348 348 349 349 347 347 347 346 351 350 350 347 332 341 342 344 345 346 346 348 350 347 348 348 349 351 349 351 347 349 348
346 346 347 345 343 347 348 350 352 354 355 357 358 355 353 349 348 348 347 347 347 347 347 347 346 348 350 350 332 330 334 330 331 331 340 347 347 344 348 348 344 344 343 346 350 350 343 341 347
345 346 345 346 348 346 350 352 350 352 350 358 359 357 353 349 349 348 348 347 347 347 346 347 347 350 349 347 336 334 334 333 336 334 333 342 348 348 348 350 344 339 346 348 346 347 346 344 347
343 342 343 345 347 348 350 352 351 351 350 354 355 354 351 351 349 348 348 348 347 347 348 346 348 347 350 347 340 332 338 334 335 341 340 344 348 349 348 346 349 346 350 348 350 347 345 345 344
341 341 341 342 345 346 349 352 353 353 350 354 354 351 350 349 347 347 346 347 348 348 349 347 348 346 350 345 341 338 341 341 341 341 340 345 349 347 347 348 348 351 351 347 349 347 345 344 345
338 339 339 340 341 344 348 351 355 354 351 354 353 351 349 349 347 347 347 347 349 349 351 350 349 350 350 350 348 345 341 345 344 346 346 350 347 345 348 348 345 349 348 348 347 348 347 343 342
337 340 340 340 341 343 347 350 354 354 353 354 353 351 349 349 348 348 348 348 349 350 350 350 352 354 351 352 349 342 347 346 346 346 346 348 348 350 351 350 343 349 348 349 349 348 346 345 346
337 338 342 339 339 341 345 349 355 354 354 353 353 351 350 349 348 349 349 349 350 350 351 351 350 351 352 351 350 344 347 347 347 347 347 346 347 350 352 350 348 348 347 348 346 346 345 345 345
336 341 339 339 338 340 344 345 352 353 352 351 353 352 351 351 351 351 351 351 350 351 352 353 352 351 352 351 353 350 349 350 348 347 347 346 347 346 351 346 348 351 350 348 347 347 347 347 346
338 338 337 338 336 339 340 344 348 353 352 352 351 352 352 352 351 351 351 352 352 352 353 353 353 353 353 353 352 350 349 349 349 348 348 347 347 347 349 349 353 351 348 349 348 351 346 348 348
335 336 336 335 334 335 340 343 349 349 350 352 353 352 352 352 351 351 351 351 352 353 354 355 354 355 355 353 351 351 350 350 351 350 350 350 350 348 348 349 351 352 352 351 352 353 351 349 351
335 336 336 335 334 336 339 339 345 350 347 350 352 353 352 351 352 352 352 352 352 354 354 355 356 357 357 355 353 352 351 352 352 351 353 352 352 351 349 350 351 351 351 353 354 353 350 346 349
337 335 335 333 334 334 337 338 339 340 346 346 350 351 352 351 354 354 353 352 352 353 355 356 357 358 358 356 354 354 355 355 353 353 353 354 352 352 353 353 351 351 353 347 354 352 352 348 347
336 334 332 332 334 335 334 340 342 342 346 346 348 351 351 352 353 354 354 353 353 353 355 356 359 359 359 358 355 355 354 353 352 352 351 352 355 354 354 351 351 352 350 350 352 351 353 346 347
334 331 331 332 334 335 336 338 343 343 345 347 348 349 349 350 352 354 353 352 352 354 355 356 359 360 360 360 358 356 356 354 353 352 352 357 353 356 354 354 352 352 352 349 351 351 351 348 343
332 332 332 332 333 335 334 334 349 349 349 348 349 350 349 349 351 351 351 351 351 352 354 356 359 362 362 361 360 360 357 355 355 353 353 352 352 352 355 354 354 352 352 353 350 354 349 352 344
331 331 334 335 335 335 337 337 357 347 352 352 354 351 349 349 351 351 352 352 352 352 354 355 359 363 363 362 361 361 361 359 357 356 355 353 351 351 354 356 355 354 354 348 352 351 352 351 347
333 331 333 340 341 345 342 341 358 347 353 352 352 351 347 347 350 352 352 353 354 354 354 355 358 362 363 362 362 362 361 361 358 355 354 356 358 354 353 355 355 353 349 349 353 351 353 352 353
332 333 332 333 341 343 345 347 353 354 354 354 355 353 351 349 350 352 353 355 357 356 356 356 357 361 362 361 362 361 360 360 359 358 359 357 353 350 352 355 355 356 354 354 354 355 352 351 352
332 334 332 334 346 344 352 353 358 356 355 357 358 358 357 357 357 356 355 355 354 355 355 356 357 359 360 360 360 359 360 359 359 358 357 352 351 351 353 353 356 357 355 356 354 353 353 353 350
331 333 334 337 339 344 354 351 350 349 357 358 358 358 357 357 357 358 357 355 355 355 356 356 357 359 359 359 359 359 357 357 357 354 348 352 353 353 353 353 354 355 356 354 354 354 353 351 350
334 335 336 337 339 340 343 345 340 352 356 358 359 359 357 355 355 356 357 358 358 359 359 358 358 357 357 359 357 352 351 351 350 351 351 352 351 352 354 356 356 356 356 355 355 354 355 354 353
Wind_Speed
6 6 9 8 5 4 8 13 16 9 15 15 7 12 14 15 11 9 31 23 26 25 21 20 20 20 18 18 17 17 16 14 12 11 11 11 10 10 11 10 10 10 10 10 11 10 11 12 12
9 5 9 7 3 2 9 7 8 14 14 11 12 5 14 15 8 21 22 26 25 24 22 19 22 21 18 19 17 17 15 13 11 9 10 9 8 7 7 7 6 6 7 8 8 9 9 11 11
6 6 8 5 5 7 7 15 9 10 12 10 4 12 10 7 17 18 25 27 25 23 23 20 22 22 20 20 18 16 13 12 10 9 9 7 6 5 4 4 3 3 5 6 7 8 8 8 10
7 5 5 5 9 15 8 8 13 12 12 8 5 15 10 9 18 20 26 26 25 24 23 19 19 19 20 18 18 14 11 10 9 8 7 6 4 3 2 2 3 4 4 5 6 7 7 8 10
10 4 1 6 12 11 7 10 9 8 4 5 10 16 9 6 14 24 26 25 24 28 23 19 19 18 18 17 15 13 11 9 8 6 5 4 3 4 4 4 5 4 4 4 4 5 6 6 7
7 4 3 11 8 6 8 4 6 10 5 11 14 15 11 14 22 24 24 23 22 27 21 19 17 17 15 14 13 11 9 7 6 5 3 3 3 4 5 5 5 5 5 4 4 4 4 5 6
2 5 7 11 7 10 10 4 5 7 10 8 18 15 13 17 22 23 22 20 22 22 23 18 15 13 14 14 11 9 6 4 3 2 2 3 5 6 6 5 6 5 5 4 4 3 4 5 6
4 10 10 7 7 11 6 11 5 7 10 5 9 7 14 19 23 21 21 22 25 23 18 17 15 15 14 13 12 10 7 6 5 4 4 8 11 12 12 9 7 6 5 4 4 4 4 6 6
4 7 8 13 10 10 5 12 9 1 8 9 3 12 22 23 25 21 19 20 20 20 22 21 18 16 16 16 15 12 10 7 7 6 9 11 12 12 16 14 10 6 5 5 5 6 6 7 8
3 11 10 13 14 12 9 11 5 5 10 10 8 17 24 24 24 22 21 19 18 18 22 19 19 20 19 20 18 17 17 20 20 17 13 11 13 12 4 10 7 4 5 6 7 7 7 9 11
10 8 13 14 10 13 8 12 3 3 9 16 12 16 19 22 21 19 19 21 20 17 20 16 16 13 18 24 20 15 18 23 17 18 23 13 13 10 6 5 1 4 6 8 7 8 8 11 13
13 6 11 12 2 8 11 3 12 12 6 15 16 17 16 18 18 19 18 17 17 16 19 16 16 18 17 16 19 16 16 18 22 16 13 13 13 12 6 2 2 3 8 8 8 13 6 5 3
10 9 5 5 5 7 5 8 9 10 11 16 17 16 16 16 17 16 16 18 17 18 19 17 21 19 15 18 14 16 12 16 15 13 14 14 13 11 1 2 3 5 5 5 6 6 6 6 6
5 4 3 3 8 8 7 8 10 10 13 15 16 15 15 17 16 16 15 14 16 15 21 21 23 16 17 16 18 14 9 13 11 15 14 15 12 6 2 2 7 9 5 5 6 6 8 6 9
6 10 8 5 4 10 2 10 17 13 14 16 15 15 14 14 15 15 16 16 15 15 16 14 20 18 16 15 17 16 11 12 11 12 14 12 7 5 5 5 5 8 6 5 7 6 6 7 8
8 9 9 9 3 6 1 11 13 13 13 16 15 13 13 13 16 15 16 13 17 14 16 14 13 18 15 17 16 14 14 11 10 8 11 11 11 7 7 6 7 8 11 9 8 9 9 9 4
8 6 7 10 2 2 2 13 14 15 12 14 14 14 12 13 15 15 17 11 15 15 13 12 11 12 14 12 12 12 15 11 10 10 11 12 10 11 8 8 5 4 9 10 10 5 5 5 8
6 6 6 5 10 5 5 15 16 15 14 13 13 14 13 13 13 18 16 19 13 13 14 13 12 10 10 10 11 11 12 12 12 11 11 10 11 11 10 7 5 4 4 6 7 5 5 9 7
3 6 0 4 5 4 7 8 16 16 14 14 13 14 13 14 15 18 16 16 17 15 16 16 16 15 15 14 11 12 12 12 10 12 12 9 12 11 11 10 6 6 5 4 3 4 6 8 8
6 6 9 8 3 7 5 7 15 16 13 17 14 15 14 13 15 16 17 17 18 18 17 16 16 16 17 15 14 13 13 10 9 11 9 11 12 14 14 12 10 8 7 7 7 8 7 10 13
12 12 4 7 9 10 7 12 10 7 14 13 17 15 15 14 14 14 16 18 17 18 19 18 17 16 16 14 13 11 10 7 8 10 13 13 14 13 14 13 12 9 8 10 8 8 8 9 8
10 3 1 4 11 14 17 3 9 14 14 16 16 15 17 15 14 14 16 17 18 17 18 18 17 17 16 16 14 13 9 9 9 10 11 8 11 12 11 11 13 12 10 11 11 8 8 8 7
3 2 1 8 11 13 14 10 4 14 15 17 16 15 13 16 15 17 15 17 16 17 17 17 17 17 16 17 17 14 14 15 10 10 7 7 7 10 12 12 16 15 13 14 13 5 8 11 8
6 7 10 12 13 13 14 15 15 2 16 14 8 10 14 17 17 14 18 18 15 16 15 17 17 16 16 16 16 18 12 11 12 6 8 10 10 12 14 14 14 15 17 14 13 12 13 14 16
10 15 11 12 12 11 3 8 10 16 6 13 9 10 13 13 17 15 15 17 16 17 16 16 17 17 16 16 16 15 15 13 11 8 12 10 9 11 11 12 14 15 16 15 14 15 13 17 17
14 16 14 6 5 10 14 7 4 22 11 9 8 7 10 18 17 16 15 16 15 15 15 15 16 15 15 15 15 14 13 14 12 12 14 14 13 8 12 11 15 15 16 17 17 16 16 17 17
15 7 19 15 13 9 11 16 15 14 14 13 13 11 10 11 11 11 11 10 9 12 14 14 13 12 12 13 12 11 11 11 12 9 10 11 12 14 16 13 13 13 17 18 17 16 17 16 16
18 11 13 9 1 11 7 4 11 9 11 13 13 13 12 10 9 9 10 13 14 13 12 11 11 10 10 9 9 10 9 9 9 9 10 11 13 14 16 16 15 16 16 17 18 19 19 18 18
9 11 11 1 6 10 3 7 10 23 20 15 14 14 14 15 12 9 7 9 8 8 6 6 8 8 7 7 5 5 6 6 7 8 9 10 12 12 13 15 15 16 17 18 19 22 21 21 23
8 10 12 7 7 13 11 6 5 5 16 17 14 14 13 14 13 12 13 14 14 13 11 10 11 8 8 7 7 5 3 2 6 9 8 6 9 11 13 14 16 16 17 18 20 23 23 24 24
Wind_Direction
250 221 255 263 256 154 81 76 54 78 82 79 78 63 81 47 44 95 138 140 142 141 149 152 157 158 154 152 149 148 142 142 139 137 130 122 115 110 103 101 99 105 111 113 117 115 112 113 117
279 292 237 277 42 56 89 62 91 65 74 96 72 311 78 66 83 127 135 137 143 140 146 153 164 162 158 157 153 150 140 143 141 140 132 128 123 116 111 111 115 119 121 121 120 119 119 121 123
284 277 272 291 87 50 86 84 74 85 78 42 47 39 31 77 121 128 135 144 142 143 143 148 158 165 165 163 154 145 141 142 135 137 137 131 131 124 122 129 141 148 150 147 142 134 135 136 136
288 210 226 148 78 90 73 72 95 46 43 71 0 97 88 134 135 126 143 149 141 149 139 151 154 154 156 159 161 153 145 142 138 135 133 131 138 145 156 163 184 191 182 162 152 147 154 159 152
230 238 315 88 87 87 78 65 33 83 96 109 85 75 99 87 122 137 148 144 155 133 139 146 156 156 158 156 162 159 150 148 148 147 148 143 157 183 203 192 191 185 182 181 181 164 163 174 166
254 247 203 91 94 93 84 44 26 110 94 100 117 90 97 145 134 145 154 152 149 136 145 151 156 161 157 141 150 153 152 156 155 174 182 182 195 209 228 205 182 179 172 170 176 166 168 170 180
317 62 58 81 110 74 73 135 58 89 80 101 108 101 120 140 142 151 149 152 142 128 134 150 157 150 142 143 148 147 145 159 176 196 206 230 224 222 216 203 187 182 177 174 170 164 168 171 174
270 95 62 63 93 84 92 75 63 93 76 99 86 135 155 146 152 155 151 149 138 141 150 154 162 159 162 149 145 147 141 166 186 207 255 260 240 222 202 189 182 181 186 187 188 176 172 176 166
242 106 94 66 90 106 166 91 62 90 116 66 61 132 149 150 156 158 154 156 154 144 158 163 161 169 156 152 147 157 191 220 218 229 239 254 264 250 225 176 170 184 200 192 195 198 194 188 181
147 75 62 88 93 97 80 70 102 127 134 122 105 104 144 155 162 163 162 164 158 164 160 160 171 161 165 169 184 209 215 235 248 252 269 293 295 269 12 139 138 189 204 209 198 203 215 208 204
67 98 109 75 63 89 111 89 43 41 48 138 144 139 149 157 171 167 169 168 163 169 154 171 166 163 177 184 192 204 220 229 254 248 254 277 290 294 294 56 95 235 223 209 199 203 209 217 226
107 73 73 105 135 112 75 131 69 45 39 112 135 147 150 159 174 171 173 162 153 161 155 172 168 179 177 182 204 217 232 238 236 256 244 264 286 280 196 153 240 230 229 212 212 231 207 225 273
92 102 147 86 140 84 124 63 84 75 94 114 140 144 153 160 168 170 172 157 159 155 154 178 165 182 179 183 206 215 226 229 236 242 229 239 253 264 60 128 219 234 229 223 225 232 229 209 251
92 92 104 150 119 117 134 129 127 105 108 127 136 147 160 151 169 156 165 165 163 164 161 166 172 173 186 191 201 194 211 230 239 233 234 229 261 240 138 161 233 258 203 210 204 213 247 206 227
152 187 163 93 137 133 90 132 102 128 129 138 146 154 153 155 156 158 162 165 168 167 160 169 163 170 176 184 189 193 207 221 230 238 238 220 235 278 298 281 241 235 238 233 229 226 242 244 254
231 232 149 106 178 120 350 106 132 148 147 146 149 153 157 154 156 151 163 167 154 164 167 178 182 176 177 184 179 196 212 223 228 233 224 211 231 238 244 232 246 250 237 238 219 216 214 231 231
205 246 85 130 200 127 232 122 147 161 170 145 159 157 170 167 172 167 171 184 163 164 165 189 189 186 173 187 194 205 211 213 225 223 231 215 218 230 229 234 243 207 230 220 237 177 199 247 250
299 118 166 115 137 223 221 134 151 174 184 160 160 160 174 174 186 171 184 171 188 172 173 186 188 194 190 192 215 225 222 219 219 219 233 206 219 224 227 233 228 235 231 231 245 158 200 252 243
358 295 24 136 105 252 252 155 158 167 190 159 175 163 171 179 172 164 188 179 185 183 186 185 192 189 192 199 203 225 230 229 208 215 219 214 224 220 224 236 226 225 226 241 242 217 216 235 264
267 231 220 145 163 262 168 248 145 163 192 168 189 169 169 179 158 167 181 189 191 190 194 193 196 196 199 202 213 209 227 226 218 228 222 226 225 222 223 225 222 224 219 229 232 213 222 246 244
228 253 29 318 184 219 238 231 158 187 174 188 178 184 172 175 163 171 181 189 190 186 194 194 196 199 205 213 215 220 234 235 225 219 224 223 221 235 225 221 225 220 221 218 230 217 215 244 289
282 71 323 251 257 233 205 154 205 164 173 182 189 195 177 169 179 174 182 192 189 189 193 197 197 201 207 210 219 224 220 235 233 239 229 248 219 232 236 224 221 224 224 218 230 221 218 225 317
78 332 223 274 272 269 206 209 229 159 163 176 190 182 199 176 183 172 187 185 190 185 188 194 197 201 210 211 219 225 226 234 230 226 203 222 247 237 232 222 216 222 226 224 233 215 198 200 209
2 258 222 229 245 258 235 230 187 282 152 159 165 181 193 179 178 185 179 172 184 176 187 191 192 201 207 213 219 228 242 248 273 209 247 241 225 233 220 228 223 223 229 237 223 216 204 197 212
232 250 245 222 215 237 293 226 138 263 162 151 165 189 203 200 172 183 175 172 179 172 185 188 190 198 205 213 222 229 240 246 260 273 260 265 258 225 201 226 235 223 231 241 236 219 215 202 211
210 237 259 262 275 327 191 191 131 212 130 134 144 149 184 189 174 178 177 177 178 173 185 194 189 196 202 210 221 231 237 243 247 250 259 282 304 281 289 209 234 237 232 229 234 226 220 215 214
255 257 273 301 153 217 260 112 132 138 135 139 128 130 141 163 152 162 163 158 168 191 187 202 198 201 208 209 216 224 231 238 255 261 270 273 273 281 282 262 256 238 232 231 230 228 225 239 220
265 319 224 244 15 295 46 214 117 113 139 136 138 129 125 123 130 151 169 171 185 189 187 196 193 201 203 207 199 218 223 225 244 253 262 282 282 286 270 269 263 253 244 233 230 226 227 228 230
194 235 248 194 312 271 64 299 160 160 184 150 134 137 142 142 133 124 124 135 135 111 131 154 181 159 176 165 168 175 196 223 234 247 266 284 293 286 279 270 266 265 261 249 239 231 237 226 229
297 328 284 289 220 327 310 209 20 305 131 125 132 133 124 122 123 121 114 109 106 99 94 101 110 127 132 145 154 157 170 236 250 239 266 276 291 292 289 281 273 269 266 261 245 238 237 227 221